Mt. Pocono, PA

3:32 PM EDT on October 20, 2019 (GMT -0400)
Pocono Mountains Municipal

Weather History for KMPO - September, 2019

Change the Weather History Date:

Sunday, September 15, 2019

  Actual Average Record
Temperature  
Mean Temperature 64 °F 59 °F  
Max Temperature 73 °F 68 °F 88 °F (1927)
Min Temperature 55 °F 50 °F 30 °F (1975)
Degree Days  
Heating Degree Days 0 6  
Month to date heating degree days 47 65  
Since 1 July heating degree days 88 128  
Cooling Degree Days 0 0  
Month to date cooling degree days 19 13  
Year to date cooling degree days 337 309  
Growing Degree Days 14 (Base 50)    
Moisture  
Dew Point 57 °F    
Average Humidity 86    
Maximum Humidity 100    
Minimum Humidity 38    
Precipitation  
Precipitation T in 0.19 in 4.00 in (1916)
Month to date precipitation 0.92 2.51  
Year to date precipitation 35.85 33.49  
Sea Level Pressure  
Sea Level Pressure 30.19 in    
Wind  
Wind Speed 7 mph ()    
Max Wind Speed 15 mph    
Max Gust Speed 19 mph    
Visibility 9.3 miles    
Events      
T = Trace of Precipitation, MM = Missing Value Source: Averaged Metar Reports

Daily Weather History Graph

Daily Weather History Graph

Search for Another Location

Airport or City:

Astronomy

Sep. 15, 2019 Rise Set
Actual Time 6:41 AM EDT 7:11 PM EDT
Civil Twilight 6:14 AM EDT 7:38 PM EDT
Nautical Twilight 5:41 AM EDT 8:11 PM EDT
Astronomical Twilight 5:07 AM EDT 8:44 PM EDT
Moon 8:17 PM EDT (9/15) 7:49 AM EDT (9/15)
Length of Visible Light 13h 24m
Length of Day
12h 29m
Full, 98% of the Moon is Illuminated
Sep 15
Full
Sep 21
Last Quarter
Sep 28
New
Oct 5
First Quarter
Oct 13
Full

Hourly Weather History & Observations

Time (EDT) Temp. Dew Point Humidity Pressure Visibility Wind Dir Wind Speed Gust Speed Precip Events Conditions
12:53 AM 63.0 °F 63.0 °F 100% 30.20 in 10.0 mi West 9.2 mph - N/A   Overcast
1:16 AM 63.0 °F 63.0 °F 100% 30.21 in 9.0 mi West 11.5 mph - N/A   Overcast
1:53 AM 63.0 °F 63.0 °F 100% 30.20 in 10.0 mi West 8.1 mph - N/A   Overcast
2:50 AM 62.6 °F 62.6 °F 100% 30.21 in 10.0 mi West 8.1 mph - N/A   Mostly Cloudy
2:53 AM 62.1 °F 62.1 °F 100% 30.20 in 10.0 mi WNW 8.1 mph - N/A   Mostly Cloudy
3:30 AM 62.1 °F 62.1 °F 100% 30.21 in 10.0 mi WNW 6.9 mph - N/A   Mostly Cloudy
3:49 AM 60.8 °F 60.8 °F 100% 30.20 in 10.0 mi WNW 9.2 mph - N/A   Scattered Clouds
3:53 AM 61.0 °F 61.0 °F 100% 30.19 in 10.0 mi WNW 8.1 mph - N/A   Scattered Clouds
4:53 AM 59.0 °F 59.0 °F 100% 30.21 in 10.0 mi NW 8.1 mph - N/A   Partly Cloudy
5:07 AM 59.0 °F 59.0 °F 100% 30.21 in 10.0 mi WNW 8.1 mph - N/A   Mostly Cloudy
5:14 AM 59.0 °F 59.0 °F 100% 30.21 in 10.0 mi WNW 5.8 mph - N/A   Scattered Clouds
5:53 AM 57.0 °F 57.0 °F 100% 30.21 in 10.0 mi West 4.6 mph - N/A   Partly Cloudy
6:08 AM 57.0 °F 57.0 °F 100% 30.21 in 10.0 mi West 5.8 mph - N/A   Mostly Cloudy
6:19 AM 57.0 °F 57.0 °F 100% 30.21 in 10.0 mi West 5.8 mph - N/A   Overcast
6:53 AM 55.9 °F 55.9 °F 100% 30.21 in 0.8 mi West 3.5 mph - N/A   Mist
7:01 AM 55.0 °F 55.0 °F 100% 30.22 in 1.2 mi West 5.8 mph - N/A   Scattered Clouds
7:04 AM 55.0 °F 55.0 °F 100% 30.22 in 3.0 mi West 5.8 mph - N/A   Scattered Clouds
7:53 AM 57.0 °F 57.0 °F 100% 30.21 in 10.0 mi WNW 9.2 mph - N/A   Partly Cloudy
8:53 AM 60.1 °F 57.0 °F 90% 30.21 in 10.0 mi NNW 8.1 mph - N/A   Partly Cloudy
9:17 AM 62.1 °F 57.9 °F 86% 30.22 in 10.0 mi NNW 6.9 mph - N/A   Mostly Cloudy
9:50 AM 62.6 °F 55.4 °F 77% 30.23 in 10.0 mi NW 6.9 mph - N/A   Partly Cloudy
9:53 AM 63.0 °F 55.9 °F 78% 30.21 in 10.0 mi NW 8.1 mph - N/A   Partly Cloudy
10:53 AM 64.9 °F 53.1 °F 65% 30.22 in 10.0 mi Variable 3.5 mph - N/A   Clear
11:53 AM 69.1 °F 51.1 °F 53% 30.19 in 10.0 mi Variable 4.6 mph - N/A   Clear
12:53 PM 72.0 °F 51.1 °F 48% 30.18 in 10.0 mi NW 8.1 mph - N/A   Clear
1:53 PM 73.0 °F 48.0 °F 41% 30.15 in 10.0 mi West 10.4 mph - N/A   Clear
2:53 PM 73.0 °F 46.9 °F 39% 30.14 in 10.0 mi WNW 12.7 mph - N/A   Clear
3:53 PM 71.1 °F 50.0 °F 47% 30.14 in 10.0 mi WNW 9.2 mph - N/A   Clear
4:53 PM 72.0 °F 54.0 °F 53% 30.14 in 10.0 mi NW 8.1 mph - N/A   Clear
5:53 PM 70.0 °F 55.9 °F 61% 30.14 in 10.0 mi West 8.1 mph - N/A   Clear
6:53 PM 66.9 °F 57.9 °F 73% 30.14 in 10.0 mi West 3.5 mph - N/A   Clear
7:53 PM 64.0 °F 59.0 °F 84% 30.14 in 10.0 mi Calm Calm - N/A   Clear
8:53 PM 60.1 °F 59.0 °F 96% 30.14 in 10.0 mi Calm Calm - N/A   Clear
9:53 PM 57.9 °F 57.0 °F 97% 30.13 in 10.0 mi West 3.5 mph - N/A   Clear
10:53 PM 57.9 °F 57.0 °F 97% 30.13 in 10.0 mi Calm Calm - N/A   Clear
11:53 PM 57.9 °F 57.0 °F 97% 30.12 in 10.0 mi West 3.5 mph - N/A   Partly Cloudy